Content
SEND FEEDBACK

Daily
Averages
Monthly
Summary
United States of America

DES PLAINES, ILLINOIS


Home > North America > United States > Illinois
Elevation: 651 feet     Latitude: 42 00N     Longitude: 087 54W

WEATHER
 
SELECT A DAY
Number of Records: 199,870;   Date Range: 7/8/95 - 12/27/14
 
SHARE

PRINT THIS DATA

[ ← Previous Day ]
WEATHER ALMANAC - JULY 1, 2013
[ Next Day → ]
[ °C ]   °F
We're sorry. There is no daily almanac available for Des Plaines, Illinois on July 1, 2013.
WEATHER BY HOUR - JULY 1, 2013
[ °C ]   °F
Local TimeTemperatureDewpointHumidityBarometerVisibilityWind DirectionWind SpeedGust SpeedPrecipitationEventsConditions
1:52 AM64.9 °F51.1 °F61 %30.00 in10.0 miNNE (30°)10.4 mph17.3 mphClear
2:52 AM63.0 °F52.0 °F67 %30.01 in10.0 miNNE (20°)6.9 mphClear
3:52 AM61.0 °F53.1 °F75 %30.01 in10.0 miNNE (20°)4.6 mphClear
4:52 AM60.1 °F52.0 °F75 %30.02 in10.0 miNorth (360°)6.9 mphClear
5:52 AM59.0 °F52.0 °F78 %30.04 in10.0 miNorth (360°)5.8 mphClear
6:52 AM63.0 °F52.0 °F67 %30.05 in10.0 miNorth (10°)6.9 mphClear
7:52 AM68.0 °F52.0 °F56 %30.05 in10.0 miNNE (20°)8.1 mph16.1 mphClear
8:52 AM70.0 °F48.9 °F47 %30.06 in10.0 miNNE (30°)9.2 mphClear
9:52 AM70.0 °F50.0 °F49 %30.07 in10.0 miNE (40°)12.7 mphClear
10:52 AM71.1 °F50.0 °F47 %30.07 in10.0 miNNE (30°)11.5 mph20.7 mphClear
11:52 AM72.0 °F50.0 °F46 %30.07 in10.0 miNNE (30°)10.4 mph20.7 mphClear
12:52 PM73.0 °F50.0 °F44 %30.07 in10.0 miNE (40°)11.5 mph23.0 mphClear
1:52 PM73.0 °F50.0 °F44 %30.07 in10.0 miNE (40°)12.7 mph20.7 mphClear
2:52 PM73.0 °F50.0 °F44 %30.07 in10.0 miNE (40°)16.1 mph24.2 mphClear
3:52 PM73.0 °F52.0 °F48 %30.07 in10.0 miNNE (30°)12.7 mph20.7 mphClear
4:52 PM73.9 °F52.0 °F46 %30.07 in10.0 miNNE (30°)13.8 mph20.7 mphClear
5:52 PM73.0 °F52.0 °F48 %30.07 in10.0 miNNE (30°)9.2 mph18.4 mphClear
6:52 PM71.1 °F51.1 °F49 %30.08 in10.0 miNNE (30°)15.0 mph18.4 mphClear
7:52 PM68.0 °F52.0 °F56 %30.08 in10.0 miNNE (20°)10.4 mphClear
8:52 PM66.0 °F52.0 °F60 %30.08 in10.0 miNNE (20°)9.2 mphClear
9:52 PM63.0 °F54.0 °F72 %30.09 in10.0 miNorth (10°)5.8 mphClear
10:52 PM63.0 °F55.0 °F75 %30.09 in10.0 miNorth (10°)4.6 mphMostly Cloudy
11:52 PM62.1 °F55.0 °F78 %30.09 in10.0 miNorth (360°)4.6 mphScattered Clouds
Hourly data recorded from KPWK, located miles away from Des Plaines, Illinois







STORIES FROM OUR PARTNERS